Location: Newark
(39.5667°N, 8.9833°E)
Time: 23:46:53
(UTC+00:00)

Transit 2A - Pass Details

Date: 28 October 2019
Orbit: 601 x 957 km, 66.7° (Epoch: 14 November)

Event Time Altitude Azimuth Distance (km) Brightness Sun altitude
Rises 15:45:11 0° 185° (S) 3,388 9.8 6.9°
Reaches altitude 10° 15:47:53 10° 178° (S) 2,399 8.9 6.4°
Maximum altitude 15:52:52 36° 112° (ESE) 1,182 6.7 5.5°
Drops below altitude 10° 15:57:26 10° 47° (NE) 2,194 7.8 4.7°
Sets 15:59:49 0° 39° (NE) 3,063 8.6 4.3°
